SCP
0 0 0 0 0 0 0 0 0 0 0 0 0 0 0 0 0 0 0 0 0 0 0 0 0 0 0 0 0 0 0 0 0 0 0 0 0 0 0 0 0 -0 0 0 0 0 0 0 0 0 0 0 0 0
0 0 0 0 0 0 0 0 0 0 0 0 0 0 0 0 0 0 0 0 0 0 0 0 -0 0 0 0 0 0 0 0 0 0 0 0 0 0 0 0 0 0 0 0 -0 -0 -0 0 0 0 0 0 0 0
0 0 0 0 0 0 0 0 0 0 0 0 0 0 0 0 0 0 0 0 0 0 0 0 0 0 0 0 0 0 0 0 0 0 0 0 0 0 0 0 0 0 0 0 0 -0 0 0 0 0 0 0 0 0
0 0 0 0 0 0 0 0 0 0 0 0 0 0 0 0 0 0 0 0 0 0 0 0 0 0 0 0 0 0 0 0 0 0 0 0 0 0 0 0 0 0 0 0 0 0 0 0 0 0 0 -0 -0 0
0 0 0 0 0 0 0 0 0 0 0 0 0 0 0 0 0 0 0 0 0 0 0 0 0 0 0 0 0 0 0 0 0 0 0 0 0 0 0 -0 -0 -0 0 0 -0 -0 -0 -0 0 0 0 0 0 0
-0 -0 -0 0 0 0 0 0 0 0 0 0 0 0 0 0 0 0 0 0 0 0 0 0 0 0 0 0 0 0 0 0 0 0 0 0 0 0 0 -0 -0 0 0 0 0 0 0 0 0 0 0 0 0 0
0 0 0 0 0 0 0 0 0 0 0 0 0 0 0 0 0 0 0 0 0 0 0 0 0 0 0 0 0 0 0 0 0 0 0 0 0 0 0 -0 0 -0 -0 -0 0 0 0 0 0 0 0 -0 0 0
0 0 0 0 0 0 0 0 0 0 0 0 0 0 0 0 0 0 0 -0 0 0 0 0 0 0 0 0 0 0 0 0 0 0 0 0 0 0 0 -0 0 0 0 0 0 0 0 0 0 0 0 0 0 0
0 0 0 0 0 0 0 0 0 0 0 0 0 0 0 0 0 0 0 0 0 0 0 0 0 0 0 0 0 0 0 0 0 0 0 0 0 0 0 0 0 0 0 0 0 0 0 -0 -0 0 0 0 0 -0
0 0 0 0 0 0 0 0 0 0 0 0 0 0 0 0 -0 0 0 0 0 0 0 0 0 0 0 0 -0 0 0 0 0 0 0 0 0 0 0 0 0 0 0 0 0 0 0 0 0 0 0 0 0 0
0 0 0 0 0 0 0 0 0 0 0 0 0 0 0 0 0 0 0 0 0 0 0 0 -0 0 0 0 0 0 0 0 0 0 0 0 0 0 0 0 0 0 0 0 0 0 0 -0 0 0 0 -0 -0 -0
0 0 0 0 0 0 0 0 -0 0 0 0 0 0 0 0 0 0 0 0 0 0 0 0 0 0 0 0 0 0 0 0 0 0 0 -0 0 0 0 0 0 0 0 0 0 0 0 0 0 0 0 -0 -0 0
-0 0 -0 0 0 -0 0 0 -0 0 0 0 0 -0 0 -0 -0 0 0 -0 -0 0 0 -0 -0 0 0 -0 0 0 0 -0 -0 0 0 -0 -0 0 0 0 0 0 0 0 0 0 0 0 0 0 0 0 0 0
-0 -0 -0 -0 -0 0 0 0 0 0 0 0 0 -0 -0 0 -0 -0 0 -0 0 -0 -0 -0 0 0 0 -0 0 -0 -0 -0 -0 0 0 -0 0 0 0 0 -0 0 0 0 0 0 0 0 0 0 -0 0 0 0
0 0 0 0 -0 0 0 0 0 0 0 0 0 0 -0 -0 -0 -0 -0 0 -0 -0 -0 -0 0 -0 -0 0 0 0 -0 -0 -0 -0 0 -0 0 0 0 -0 0 0 0 0 0 0 0 0 0 0 0 0 0 0
-0 0 0 -0 -0 0 0 0 0 0 -0 0 0 0 0 -0 0 0 0 -0 -0 -0 0 0 -0 0 -0 0 0 -0 0 -0 -0 0 -0 -0 0 0 0 0 0 0 0 0 0 0 0 0 0 -0 -0 0 0 0
-0 0 -0 -0 -0 0 0 0 -0 -0 -0 0 0 0 0 -0 -0 0 0 -0 0 0 -0 -0 -0 0 0 -0 0 0 -0 -0 -0 0 0 -0 -0 0 0 0 0 0 0 0 0 0 0 -0 -0 -0 -0 -0 -0 0
0 -0 -0 0 0 0 -0 -0 -0 0 0 0 0 0 0 -0 -0 0 -0 -0 -0 -0 -0 -0 -0 0 -0 0 0 0 -0 -0 -0 -0 0 -0 0 0 0 0 0 0 0 0 0 0 0 0 0 -0 0 -0 -0 0
-0 -0 -0 -0 -0 0 0 0 -0 0 0 0 0 0 -0 0 0 0 -0 0 -0 0 0 0 0 0 0 0 -0 -0 -0 -0 -0 -0 -0 -0 0 0 0 0 0 0 0 0 0 0 0 0 0 0 -0 -0 0 0
-0 -0 -0 -0 0 0 0 0 -0 0 0 0 -0 0 -0 0 0 -0 -0 -0 -0 -0 -0 0 0 0 -0 -0 -0 0 0 0 0 0 -0 -0 0 0 0 0 0 0 0 0 0 0 0 0 0 0 0 0 0 0
-0 -0 -0 -0 -0 0 0 0 0 0 0 0 0 -0 0 0 -0 -0 -0 -0 -0 0 0 -0 0 0 -0 -0 -0 0 0 0 0 0 0 0 0 0 0 0 0 0 0 0 0 0 0 0 0 0 0 0 0 0
0 -0 0 0 0 0 0 0 0 0 0 0 0 0 0 0 -0 0 -0 -0 -0 -0 -0 0 -0 -0 -0 -0 -0 -0 0 -0 0 0 0 0 0 0 0 0 0 0 0 0 0 0 0 0 0 0 0 0 0 0
0 0 0 0 0 0 0 0 0 0 0 0 0 0 0 0 0 0 0 0 0 0 -0 -0 0 -0 -0 -0 0 0 0 -0 0 0 0 0 0 0 0 0 0 0 0 0 0 0 0 0 0 0 0 0 0 0
-0 0 0 0 0 0 0 0 0 0 0 0 0 0 0 0 0 0 0 0 0 0 0 0 0 0 0 0 0 0 0 0 0 0 0 0 0 0 -0 0 0 0 0 0 0 0 0 0 0 0 0 0 0 0
0 0 0 0 0 0 0 0 0 0 0 0 0 0 0 0 0 0 0 0 0 0 0 0 0 0 0 -0 0 0 0 0 0 0 0 0 0 0 0 0 0 0 0 0 0 0 0 0 0 0 0 0 0 0
0 0 0 0 0 0 0 0 0 0 0 0 0 0 0 0 0 0 0 0 0 0 0 0 0 0 0 0 0 0 0 0 0 0 0 0 0 0 0 0 0 0 0 0 0 0 0 0 0 -0 -0 0 0 0
0 0 0 0 0 0 0 0 0 0 0 0 0 0 0 0 0 0 0 0 0 0 0 0 0 0 0 0 0 0 0 0 0 0 0 0 0 0 0 0 0 0 0 0 0 0 0 0 0 0 -0 0 0 0
0 0 0 0 0 0 0 0 0 0 0 0 0 0 0 0 0 0 0 0 0 0 0 0 0 0 0 0 0 0 0 0 0 0 0 0 0 0 0 0 0 0 0 0 0 0 0 0 0 0 0 -0 0 0
0 0 0 0 0 0 0 0 0 0 0 0 0 0 0 0 0 0 0 0 0 0 0 0 0 0 0 0 0 0 0 0 0 0 0 0 0 0 0 0 0 0 0 0 0 0 0 0 0 0 0 0 0 0
0 0 0 0 0 0 0 0 0 0 0 0 0 0 0 0 0 0 0 0 -0 -0 -0 0 0 0 0 0 0 0 0 0 0 0 0 0 0 0 0 0 0 0 0 0 0 0 0 0 0 0 0 0 0 0
0 0 0 0 0 0 -0 -0 0 0 0 0 0 0 0 0 0 0 0 0 0 0 0 -0 -0 -0 0 0 0 0 0 0 0 0 0 0 0 0 0 0 0 0 0 0 0 0 0 0 0 0 0 0 -0 -0
0 0 0 0 0 0 -0 -0 -0 -0 -0 -0 -0 0 0 0 0 0 0 0 0 0 -0 0 0 -0 0 0 0 0 0 0 0 0 0 0 0 0 0 0 0 0 0 0 0 0 0 0 0 0 0 0 0 0
0 0 0 0 0 0 0 -0 0 0 -0 -0 -0 -0 0 0 0 0 0 0 0 0 0 0 0 0 0 0 0 0 0 0 0 0 0 0 0 0 0 0 0 0 0 0 0 0 0 0 0 0 0 0 0 0
Wind_Speed_500mb
31 32 34 27 25 26 24 24 24 23 21 17 16 17 15 16 18 14 6 8 13 13 47 49 12 17 29 14 4 18 23 10 11 10 5 6 6 7 8 7 7 8 8 5 4 5 11 16 15 7 7 48 53 55
28 23 21 26 24 20 21 25 25 22 19 18 18 19 17 16 16 19 15 20 21 25 34 43 63 67 71 63 47 12 17 17 9 4 5 6 6 7 6 7 6 6 5 6 10 9 14 19 26 27 27 50 52 37
20 22 23 21 17 22 26 25 22 20 22 21 19 19 20 18 17 19 26 19 20 24 50 35 11 25 12 17 25 15 30 26 16 13 3 6 10 5 5 7 7 8 2 3 4 10 27 49 42 39 31 42 58 27
22 22 16 17 22 23 20 19 21 22 22 22 20 23 23 21 20 21 28 19 20 17 13 26 22 28 38 54 55 54 49 47 41 40 15 6 3 8 7 8 4 12 3 6 10 18 32 28 36 31 24 29 42 29
15 17 20 17 18 21 22 21 23 23 23 24 23 28 27 23 24 26 32 32 29 26 11 34 75 38 29 54 44 41 37 49 54 23 7 7 13 16 13 7 20 12 12 7 9 14 20 29 19 27 13 12 31 25
14 17 19 18 18 17 19 22 23 24 25 25 25 26 22 19 20 19 8 5 12 26 15 7 26 82 32 21 32 41 48 51 41 27 16 32 48 27 9 8 19 41 32 19 14 42 43 44 30 22 45 39 18 41
13 13 14 15 16 16 16 16 19 22 23 21 19 20 22 20 23 19 9 11 9 11 11 13 17 15 31 44 33 29 32 42 38 30 20 29 36 28 7 30 39 66 64 67 55 46 34 39 25 13 26 37 26 44
8 11 13 14 14 13 14 17 19 19 20 20 19 19 19 18 25 38 32 34 29 30 12 7 9 19 17 25 12 21 18 17 18 34 26 19 16 19 13 25 64 72 75 77 73 67 61 31 20 16 16 29 30 47
7 9 11 13 14 18 19 16 16 16 16 13 14 14 18 22 19 15 12 12 17 22 8 9 5 8 10 12 11 16 6 5 12 8 12 16 12 13 15 40 55 56 56 52 38 50 41 40 33 11 21 30 60 57
8 11 14 17 20 18 19 20 21 15 12 12 10 6 7 7 10 12 5 8 20 16 18 12 14 13 31 31 9 8 6 5 6 10 15 15 29 72 72 78 74 62 50 59 52 32 33 36 32 39 36 44 31 48
12 15 17 20 22 22 22 23 16 14 13 8 6 9 10 16 8 8 6 9 12 8 14 15 24 18 23 8 8 14 6 6 5 9 9 7 10 40 84 88 82 92 73 67 61 47 34 27 46 66 64 67 28 56
16 18 18 17 10 10 15 14 13 16 8 10 7 12 13 7 6 5 6 6 9 8 10 11 13 25 21 18 13 9 8 5 12 7 7 6 7 42 61 80 87 87 79 74 63 40 30 27 41 69 68 58 37 69
16 19 15 13 13 13 11 11 16 15 17 10 5 5 4 5 2 8 8 7 6 7 9 9 7 10 11 17 1 6 10 11 4 4 7 3 40 58 49 16 25 54 69 62 42 37 35 26 30 44 52 37 45 68
18 17 11 14 13 11 9 4 15 23 15 7 6 7 8 7 9 9 9 9 23 14 28 33 12 7 9 6 7 7 9 3 6 6 6 6 42 56 49 39 37 29 54 57 40 32 39 33 35 35 49 35 48 65
16 11 11 18 6 3 5 14 21 25 7 8 8 8 12 27 17 25 30 22 35 37 28 11 14 9 6 6 6 6 7 9 7 8 8 34 46 43 52 48 42 20 48 51 46 54 38 49 41 22 36 54 44 55
10 5 11 15 10 10 12 12 13 9 7 8 13 8 19 16 26 29 17 36 32 10 20 10 5 4 6 6 5 10 8 6 8 11 41 39 46 48 52 43 44 11 57 52 36 37 45 52 36 27 49 50 52 59
19 5 7 6 4 1 4 4 5 8 9 9 14 22 40 46 39 41 27 44 16 6 4 6 5 8 5 5 7 5 7 8 27 40 50 42 64 48 47 37 36 19 34 57 38 41 51 57 57 60 79 105 61 57
6 10 9 9 10 9 10 9 8 9 13 21 13 32 32 37 40 33 39 44 36 13 11 10 12 5 6 5 4 4 11 40 51 46 53 47 58 61 34 34 29 33 35 43 45 38 43 62 91 87 86 92 54 61
14 14 13 10 11 8 4 7 12 9 15 24 28 34 32 41 47 43 50 33 15 16 7 5 6 5 6 6 2 33 46 42 45 53 48 33 44 36 31 29 34 23 32 40 35 40 57 58 65 79 85 81 71 74
13 10 6 5 5 3 7 8 10 11 11 12 26 31 32 37 40 33 4 14 19 3 1 4 7 19 35 49 48 44 40 47 44 42 45 24 31 39 30 20 16 29 16 30 43 41 45 55 75 85 84 76 80 78
4 1 6 6 7 10 9 8 10 15 17 14 25 30 33 32 25 11 7 16 5 4 9 18 22 44 46 43 37 31 38 37 42 40 42 42 31 27 32 43 46 34 36 27 24 33 47 53 73 62 55 66 77 75
2 10 3 5 6 7 11 13 13 21 16 20 29 14 14 15 11 9 32 5 6 13 12 19 53 48 45 44 42 42 39 31 30 30 30 27 26 24 31 33 36 40 43 37 25 38 41 42 45 53 50 59 68 60
5 4 2 5 6 7 13 11 9 8 5 10 17 9 6 8 9 17 6 7 10 13 53 55 42 37 38 33 31 33 39 35 31 25 25 16 16 18 18 15 21 34 38 45 23 29 31 41 48 53 56 68 65 67
5 6 4 4 6 9 11 7 8 8 8 6 5 7 7 7 12 7 4 7 17 60 59 60 56 51 46 36 33 25 28 37 36 26 27 20 15 11 11 8 7 15 23 29 20 23 34 38 39 39 64 66 64 67
3 6 6 8 8 6 6 7 7 5 5 7 7 6 6 10 4 3 6 14 50 64 72 67 61 54 49 38 24 18 21 38 39 32 29 16 15 12 10 13 15 3 10 21 24 22 25 38 44 59 60 71 74 72
6 9 12 9 6 6 5 6 4 5 5 5 6 10 8 3 7 8 9 39 55 66 69 66 69 69 59 26 2 18 19 29 44 31 22 15 12 10 8 9 15 13 1 10 15 16 19 37 51 66 64 69 72 72
6 3 9 12 7 7 9 13 12 7 6 6 6 3 5 10 9 9 41 55 63 59 64 70 74 69 62 49 28 9 12 23 46 45 31 18 10 7 6 13 14 11 13 12 14 16 43 49 54 64 65 72 74 77
8 8 7 10 14 17 7 5 5 6 5 9 7 10 6 9 5 25 35 55 55 59 64 74 74 81 77 67 47 33 28 30 37 42 27 17 7 4 13 16 17 18 16 19 18 21 39 52 64 69 74 77 73 66
11 10 9 14 8 9 6 4 7 10 12 9 5 5 5 4 35 55 69 60 63 62 68 68 76 77 77 75 60 38 32 31 30 27 19 17 17 19 20 19 20 16 13 24 33 40 47 59 67 69 72 65 60 56
9 11 9 11 9 7 15 15 24 22 23 22 17 15 12 9 36 64 69 56 61 70 69 68 65 69 71 69 76 64 54 47 38 32 32 25 23 20 21 24 25 23 26 34 49 51 57 61 63 66 66 59 59 61
26 11 8 10 7 20 30 26 17 30 29 28 25 27 20 10 22 62 73 64 51 50 64 70 70 67 61 62 62 65 68 57 50 47 45 40 30 31 32 37 36 38 50 50 51 53 59 61 58 59 53 42 39 50
18 19 11 10 10 18 19 22 20 33 34 39 41 28 22 11 19 46 70 69 49 53 55 56 67 62 52 41 51 51 47 49 48 42 42 48 45 45 43 36 50 54 58 55 53 45 35 32 30 35 43 55 62 65
10 9 11 10 11 16 14 5 13 10 9 9 19 33 31 17 12 31 54 70 56 46 44 46 49 50 47 36 36 41 46 46 42 35 30 30 24 30 36 39 40 35 34 34 31 31 37 44 49 51 52 50 54 58
Wind_Direction_500mb
249 233 241 255 259 257 260 273 283 291 294 299 305 311 316 313 311 309 218 181 2 285 282 291 274 247 278 293 227 320 341 353 335 21 347 326 322 306 323 288 260 192 175 212 218 228 269 3 338 335 268 322 314 287
235 223 242 251 250 247 264 273 283 283 283 285 293 298 304 305 304 297 276 231 263 277 264 275 276 274 272 276 263 252 261 307 285 28 358 340 318 320 325 287 310 316 154 196 183 218 239 249 259 272 314 324 306 295
221 231 243 241 247 257 268 279 279 277 277 283 287 297 295 293 297 294 289 298 296 299 300 278 283 313 258 288 263 256 279 237 226 244 231 261 256 304 278 270 342 318 72 198 256 254 250 276 281 279 280 326 320 271
221 219 221 246 258 269 272 273 278 280 282 282 280 290 293 288 283 285 284 288 266 277 272 281 283 274 280 273 261 270 265 243 255 266 228 225 278 310 284 278 239 228 223 250 260 295 300 308 285 273 291 315 323 219
212 234 247 252 258 263 268 275 275 275 276 274 277 280 289 291 290 275 282 288 266 233 280 297 300 300 298 297 279 262 260 242 245 225 187 219 228 268 270 285 260 215 230 192 244 281 272 289 291 272 235 346 234 189
239 247 253 256 258 265 276 280 283 283 281 279 278 281 284 283 291 298 287 79 113 235 261 288 293 296 307 320 283 279 252 245 238 216 212 232 239 235 270 256 234 244 231 297 280 301 287 277 268 267 222 209 186 168
246 248 256 262 269 274 277 284 292 294 287 280 280 284 278 266 263 240 236 177 195 350 308 303 289 284 308 312 328 294 238 239 246 232 215 220 228 242 257 264 272 281 285 288 288 292 268 266 254 247 225 235 210 186
263 268 271 274 272 269 277 290 288 290 289 276 274 276 281 265 262 266 274 255 256 277 267 262 270 297 315 300 319 356 323 301 243 232 228 200 224 214 250 251 261 265 274 274 276 279 260 263 269 275 233 196 159 188
299 297 288 275 271 272 274 289 294 295 293 286 280 281 272 263 261 299 330 188 208 213 243 242 232 278 308 5 348 326 289 295 270 207 214 206 213 221 224 237 249 254 247 257 265 298 263 248 255 260 177 152 167 181
335 316 299 285 277 276 264 278 294 288 281 271 279 246 249 239 314 286 255 206 207 222 225 244 235 259 286 294 286 281 238 243 274 249 217 213 231 234 238 248 260 263 268 270 275 249 250 241 215 173 173 160 176 181
336 327 320 308 287 274 273 278 267 269 246 239 219 234 252 278 263 201 238 198 204 245 223 240 236 252 272 223 229 225 237 227 250 263 169 234 241 234 235 241 249 259 265 270 278 287 243 252 206 181 171 200 219 195
332 329 330 337 320 282 278 267 243 238 215 188 235 283 275 235 215 224 220 228 200 234 204 202 234 252 259 241 204 238 211 178 244 234 219 262 292 270 234 238 245 254 256 262 263 254 240 243 224 204 202 203 201 188
331 332 324 330 327 315 288 269 235 210 196 217 234 239 210 185 279 215 224 228 226 226 242 229 260 230 258 231 253 253 234 224 273 232 237 345 338 326 334 277 270 257 251 252 246 240 223 201 171 171 170 161 179 188
336 337 333 332 325 313 314 207 180 171 169 200 216 243 220 203 229 205 226 231 282 244 286 290 260 241 252 259 226 259 244 262 276 240 247 310 324 315 326 331 324 270 233 235 221 196 176 163 164 159 197 204 177 181
349 352 4 352 347 44 114 139 154 172 190 232 221 234 220 231 249 263 270 270 292 291 277 297 262 245 278 270 238 290 261 228 239 6 357 337 314 340 341 343 346 261 216 218 206 191 195 189 164 92 170 181 194 181
360 53 29 44 62 71 76 122 146 173 252 240 235 261 273 291 287 289 279 302 307 269 260 241 264 236 261 258 265 235 274 44 350 350 335 343 340 342 348 336 337 288 208 205 207 206 191 175 165 154 169 162 177 175
46 97 30 32 54 302 239 262 222 239 245 243 243 251 259 270 270 273 275 293 288 232 219 193 245 237 167 232 256 314 31 333 335 331 329 0 359 332 334 342 343 56 212 212 202 163 172 175 162 170 166 163 165 180
342 333 336 336 332 336 292 221 241 245 246 248 252 275 289 298 298 294 262 285 276 237 198 214 177 263 241 235 284 337 336 323 318 312 316 331 340 329 360 4 19 61 99 161 165 152 155 162 170 170 166 175 169 179
329 310 303 304 303 309 267 228 219 257 256 279 282 288 296 301 312 305 306 297 289 263 242 78 290 237 242 264 36 321 318 309 312 320 321 338 337 339 349 25 36 45 81 99 138 151 160 166 170 173 175 174 180 176
317 314 303 311 284 279 274 257 227 260 269 274 292 295 306 294 297 314 135 2 355 34 12 250 236 267 273 271 277 280 288 299 308 304 306 312 312 338 331 336 5 14 64 96 114 133 159 166 171 172 176 175 170 165
343 336 300 311 284 237 265 282 255 253 272 267 280 296 292 285 288 289 306 336 300 245 227 232 267 309 301 285 296 301 285 290 288 285 288 303 317 333 336 3 36 33 47 68 114 138 155 165 168 169 173 177 169 159
278 340 264 256 256 246 260 243 252 289 287 270 290 272 267 278 289 321 318 290 228 239 237 299 317 306 299 285 290 285 281 283 272 284 280 281 296 320 336 357 28 34 40 42 129 143 155 158 162 170 178 170 157 158
288 320 237 240 271 255 265 281 256 262 284 295 306 295 282 341 324 317 290 273 269 267 312 314 314 315 310 300 286 259 254 256 254 258 259 271 295 296 308 328 21 34 44 40 87 133 150 154 167 165 169 160 163 162
304 195 227 246 238 265 300 264 261 273 272 269 271 273 322 299 292 259 268 323 305 325 329 331 332 327 323 309 291 274 244 232 233 242 233 244 251 249 270 276 308 32 37 31 86 122 140 159 158 163 164 162 166 164
203 209 202 234 249 259 278 292 270 308 298 325 316 293 303 315 312 309 343 308 320 330 340 340 340 339 317 304 289 248 214 207 204 217 210 215 231 232 260 245 240 300 31 55 93 107 141 148 154 160 171 173 170 172
262 201 194 217 213 197 250 270 288 286 285 283 263 285 289 278 350 355 319 325 329 336 341 342 334 332 343 6 112 186 192 189 189 182 160 162 211 221 218 209 218 210 273 94 107 140 139 159 158 168 164 173 177 180
297 249 245 246 237 207 253 256 267 278 273 263 243 263 7 11 8 318 323 348 336 4 12 19 11 8 13 46 51 141 170 176 193 182 160 154 127 191 231 180 156 154 157 165 138 166 162 157 158 165 166 170 177 179
264 265 251 219 217 232 247 232 232 233 292 346 48 28 39 19 340 328 330 6 11 37 42 39 36 38 34 51 70 71 92 119 148 168 176 185 211 164 141 143 142 147 175 191 169 178 179 175 168 170 171 171 170 177
241 256 254 268 239 216 238 46 338 10 8 32 56 65 84 84 19 11 15 20 39 40 38 39 35 38 39 47 69 84 105 110 118 129 136 139 135 135 137 145 160 173 172 166 158 167 159 161 168 171 174 172 165 167
307 312 318 360 26 27 58 64 58 68 71 89 109 118 95 83 21 27 25 34 33 33 40 39 41 42 42 40 48 69 75 91 106 117 114 115 122 126 138 156 158 151 154 161 161 160 164 166 163 164 164 160 158 158
334 359 13 26 355 51 98 62 75 75 82 78 79 89 85 77 14 19 23 24 33 36 34 36 40 40 40 44 49 48 50 69 89 98 95 97 107 128 137 143 131 148 153 154 156 158 146 138 134 136 138 136 145 157
341 29 25 15 340 17 95 86 85 90 83 66 50 55 44 45 32 9 17 18 27 32 34 35 37 36 37 47 57 64 59 55 65 81 87 93 93 93 109 130 140 139 138 138 133 125 121 132 138 144 145 149 154 160
305 17 8 343 8 4 353 291 170 150 77 61 40 36 38 43 48 357 9 16 21 30 29 35 40 42 41 59 64 68 67 68 65 69 71 68 90 120 118 108 115 122 117 113 118 125 137 142 144 148 152 152 156 161
Wind_Speed_850mb
31 32 34 27 25 26 24 24 24 23 21 17 16 17 15 16 18 14 6 8 13 13 47 49 12 17 29 14 4 18 23 10 11 10 5 6 6 7 8 7 7 8 8 5 4 5 11 16 15 7 7 48 53 55
28 23 21 26 24 20 21 25 25 22 19 18 18 19 17 16 16 19 15 20 21 25 34 43 63 67 71 63 47 12 17 17 9 4 5 6 6 7 6 7 6 6 5 6 10 9 14 19 26 27 27 50 52 37
20 22 23 21 17 22 26 25 22 20 22 21 19 19 20 18 17 19 26 19 20 24 50 35 11 25 12 17 25 15 30 26 16 13 3 6 10 5 5 7 7 8 2 3 4 10 27 49 42 39 31 42 58 27
22 22 16 17 22 23 20 19 21 22 22 22 20 23 23 21 20 21 28 19 20 17 13 26 22 28 38 54 55 54 49 47 41 40 15 6 3 8 7 8 4 12 3 6 10 18 32 28 36 31 24 29 42 29
15 17 20 17 18 21 22 21 23 23 23 24 23 28 27 23 24 26 32 32 29 26 11 34 75 38 29 54 44 41 37 49 54 23 7 7 13 16 13 7 20 12 12 7 9 14 20 29 19 27 13 12 31 25
14 17 19 18 18 17 19 22 23 24 25 25 25 26 22 19 20 19 8 5 12 26 15 7 26 82 32 21 32 41 48 51 41 27 16 32 48 27 9 8 19 41 32 19 14 42 43 44 30 22 45 39 18 41
13 13 14 15 16 16 16 16 19 22 23 21 19 20 22 20 23 19 9 11 9 11 11 13 17 15 31 44 33 29 32 42 38 30 20 29 36 28 7 30 39 66 64 67 55 46 34 39 25 13 26 37 26 44
8 11 13 14 14 13 14 17 19 19 20 20 19 19 19 18 25 38 32 34 29 30 12 7 9 19 17 25 12 21 18 17 18 34 26 19 16 19 13 25 64 72 75 77 73 67 61 31 20 16 16 29 30 47
7 9 11 13 14 18 19 16 16 16 16 13 14 14 18 22 19 15 12 12 17 22 8 9 5 8 10 12 11 16 6 5 12 8 12 16 12 13 15 40 55 56 56 52 38 50 41 40 33 11 21 30 60 57
8 11 14 17 20 18 19 20 21 15 12 12 10 6 7 7 10 12 5 8 20 16 18 12 14 13 31 31 9 8 6 5 6 10 15 15 29 72 72 78 74 62 50 59 52 32 33 36 32 39 36 44 31 48
12 15 17 20 22 22 22 23 16 14 13 8 6 9 10 16 8 8 6 9 12 8 14 15 24 18 23 8 8 14 6 6 5 9 9 7 10 40 84 88 82 92 73 67 61 47 34 27 46 66 64 67 28 56
16 18 18 17 10 10 15 14 13 16 8 10 7 12 13 7 6 5 6 6 9 8 10 11 13 25 21 18 13 9 8 5 12 7 7 6 7 42 61 80 87 87 79 74 63 40 30 27 41 69 68 58 37 69
16 19 15 13 13 13 11 11 16 15 17 10 5 5 4 5 2 8 8 7 6 7 9 9 7 10 11 17 1 6 10 11 4 4 7 3 40 58 49 16 25 54 69 62 42 37 35 26 30 44 52 37 45 68
18 17 11 14 13 11 9 4 15 23 15 7 6 7 8 7 9 9 9 9 23 14 28 33 12 7 9 6 7 7 9 3 6 6 6 6 42 56 49 39 37 29 54 57 40 32 39 33 35 35 49 35 48 65
16 11 11 18 6 3 5 14 21 25 7 8 8 8 12 27 17 25 30 22 35 37 28 11 14 9 6 6 6 6 7 9 7 8 8 34 46 43 52 48 42 20 48 51 46 54 38 49 41 22 36 54 44 55
10 5 11 15 10 10 12 12 13 9 7 8 13 8 19 16 26 29 17 36 32 10 20 10 5 4 6 6 5 10 8 6 8 11 41 39 46 48 52 43 44 11 57 52 36 37 45 52 36 27 49 50 52 59
19 5 7 6 4 1 4 4 5 8 9 9 14 22 40 46 39 41 27 44 16 6 4 6 5 8 5 5 7 5 7 8 27 40 50 42 64 48 47 37 36 19 34 57 38 41 51 57 57 60 79 105 61 57
6 10 9 9 10 9 10 9 8 9 13 21 13 32 32 37 40 33 39 44 36 13 11 10 12 5 6 5 4 4 11 40 51 46 53 47 58 61 34 34 29 33 35 43 45 38 43 62 91 87 86 92 54 61
14 14 13 10 11 8 4 7 12 9 15 24 28 34 32 41 47 43 50 33 15 16 7 5 6 5 6 6 2 33 46 42 45 53 48 33 44 36 31 29 34 23 32 40 35 40 57 58 65 79 85 81 71 74
13 10 6 5 5 3 7 8 10 11 11 12 26 31 32 37 40 33 4 14 19 3 1 4 7 19 35 49 48 44 40 47 44 42 45 24 31 39 30 20 16 29 16 30 43 41 45 55 75 85 84 76 80 78
4 1 6 6 7 10 9 8 10 15 17 14 25 30 33 32 25 11 7 16 5 4 9 18 22 44 46 43 37 31 38 37 42 40 42 42 31 27 32 43 46 34 36 27 24 33 47 53 73 62 55 66 77 75
2 10 3 5 6 7 11 13 13 21 16 20 29 14 14 15 11 9 32 5 6 13 12 19 53 48 45 44 42 42 39 31 30 30 30 27 26 24 31 33 36 40 43 37 25 38 41 42 45 53 50 59 68 60
5 4 2 5 6 7 13 11 9 8 5 10 17 9 6 8 9 17 6 7 10 13 53 55 42 37 38 33 31 33 39 35 31 25 25 16 16 18 18 15 21 34 38 45 23 29 31 41 48 53 56 68 65 67
5 6 4 4 6 9 11 7 8 8 8 6 5 7 7 7 12 7 4 7 17 60 59 60 56 51 46 36 33 25 28 37 36 26 27 20 15 11 11 8 7 15 23 29 20 23 34 38 39 39 64 66 64 67
3 6 6 8 8 6 6 7 7 5 5 7 7 6 6 10 4 3 6 14 50 64 72 67 61 54 49 38 24 18 21 38 39 32 29 16 15 12 10 13 15 3 10 21 24 22 25 38 44 59 60 71 74 72
6 9 12 9 6 6 5 6 4 5 5 5 6 10 8 3 7 8 9 39 55 66 69 66 69 69 59 26 2 18 19 29 44 31 22 15 12 10 8 9 15 13 1 10 15 16 19 37 51 66 64 69 72 72
6 3 9 12 7 7 9 13 12 7 6 6 6 3 5 10 9 9 41 55 63 59 64 70 74 69 62 49 28 9 12 23 46 45 31 18 10 7 6 13 14 11 13 12 14 16 43 49 54 64 65 72 74 77
8 8 7 10 14 17 7 5 5 6 5 9 7 10 6 9 5 25 35 55 55 59 64 74 74 81 77 67 47 33 28 30 37 42 27 17 7 4 13 16 17 18 16 19 18 21 39 52 64 69 74 77 73 66
11 10 9 14 8 9 6 4 7 10 12 9 5 5 5 4 35 55 69 60 63 62 68 68 76 77 77 75 60 38 32 31 30 27 19 17 17 19 20 19 20 16 13 24 33 40 47 59 67 69 72 65 60 56
9 11 9 11 9 7 15 15 24 22 23 22 17 15 12 9 36 64 69 56 61 70 69 68 65 69 71 69 76 64 54 47 38 32 32 25 23 20 21 24 25 23 26 34 49 51 57 61 63 66 66 59 59 61
26 11 8 10 7 20 30 26 17 30 29 28 25 27 20 10 22 62 73 64 51 50 64 70 70 67 61 62 62 65 68 57 50 47 45 40 30 31 32 37 36 38 50 50 51 53 59 61 58 59 53 42 39 50
18 19 11 10 10 18 19 22 20 33 34 39 41 28 22 11 19 46 70 69 49 53 55 56 67 62 52 41 51 51 47 49 48 42 42 48 45 45 43 36 50 54 58 55 53 45 35 32 30 35 43 55 62 65
10 9 11 10 11 16 14 5 13 10 9 9 19 33 31 17 12 31 54 70 56 46 44 46 49 50 47 36 36 41 46 46 42 35 30 30 24 30 36 39 40 35 34 34 31 31 37 44 49 51 52 50 54 58
Wind_Direction_850mb
249 233 241 255 259 257 260 273 283 291 294 299 305 311 316 313 311 309 218 181 2 285 282 291 274 247 278 293 227 320 341 353 335 21 347 326 322 306 323 288 260 192 175 212 218 228 269 3 338 335 268 322 314 287
235 223 242 251 250 247 264 273 283 283 283 285 293 298 304 305 304 297 276 231 263 277 264 275 276 274 272 276 263 252 261 307 285 28 358 340 318 320 325 287 310 316 154 196 183 218 239 249 259 272 314 324 306 295
221 231 243 241 247 257 268 279 279 277 277 283 287 297 295 293 297 294 289 298 296 299 300 278 283 313 258 288 263 256 279 237 226 244 231 261 256 304 278 270 342 318 72 198 256 254 250 276 281 279 280 326 320 271
221 219 221 246 258 269 272 273 278 280 282 282 280 290 293 288 283 285 284 288 266 277 272 281 283 274 280 273 261 270 265 243 255 266 228 225 278 310 284 278 239 228 223 250 260 295 300 308 285 273 291 315 323 219
212 234 247 252 258 263 268 275 275 275 276 274 277 280 289 291 290 275 282 288 266 233 280 297 300 300 298 297 279 262 260 242 245 225 187 219 228 268 270 285 260 215 230 192 244 281 272 289 291 272 235 346 234 189
239 247 253 256 258 265 276 280 283 283 281 279 278 281 284 283 291 298 287 79 113 235 261 288 293 296 307 320 283 279 252 245 238 216 212 232 239 235 270 256 234 244 231 297 280 301 287 277 268 267 222 209 186 168
246 248 256 262 269 274 277 284 292 294 287 280 280 284 278 266 263 240 236 177 195 350 308 303 289 284 308 312 328 294 238 239 246 232 215 220 228 242 257 264 272 281 285 288 288 292 268 266 254 247 225 235 210 186
263 268 271 274 272 269 277 290 288 290 289 276 274 276 281 265 262 266 274 255 256 277 267 262 270 297 315 300 319 356 323 301 243 232 228 200 224 214 250 251 261 265 274 274 276 279 260 263 269 275 233 196 159 188
299 297 288 275 271 272 274 289 294 295 293 286 280 281 272 263 261 299 330 188 208 213 243 242 232 278 308 5 348 326 289 295 270 207 214 206 213 221 224 237 249 254 247 257 265 298 263 248 255 260 177 152 167 181
335 316 299 285 277 276 264 278 294 288 281 271 279 246 249 239 314 286 255 206 207 222 225 244 235 259 286 294 286 281 238 243 274 249 217 213 231 234 238 248 260 263 268 270 275 249 250 241 215 173 173 160 176 181
336 327 320 308 287 274 273 278 267 269 246 239 219 234 252 278 263 201 238 198 204 245 223 240 236 252 272 223 229 225 237 227 250 263 169 234 241 234 235 241 249 259 265 270 278 287 243 252 206 181 171 200 219 195
332 329 330 337 320 282 278 267 243 238 215 188 235 283 275 235 215 224 220 228 200 234 204 202 234 252 259 241 204 238 211 178 244 234 219 262 292 270 234 238 245 254 256 262 263 254 240 243 224 204 202 203 201 188
331 332 324 330 327 315 288 269 235 210 196 217 234 239 210 185 279 215 224 228 226 226 242 229 260 230 258 231 253 253 234 224 273 232 237 345 338 326 334 277 270 257 251 252 246 240 223 201 171 171 170 161 179 188
336 337 333 332 325 313 314 207 180 171 169 200 216 243 220 203 229 205 226 231 282 244 286 290 260 241 252 259 226 259 244 262 276 240 247 310 324 315 326 331 324 270 233 235 221 196 176 163 164 159 197 204 177 181
349 352 4 352 347 44 114 139 154 172 190 232 221 234 220 231 249 263 270 270 292 291 277 297 262 245 278 270 238 290 261 228 239 6 357 337 314 340 341 343 346 261 216 218 206 191 195 189 164 92 170 181 194 181
360 53 29 44 62 71 76 122 146 173 252 240 235 261 273 291 287 289 279 302 307 269 260 241 264 236 261 258 265 235 274 44 350 350 335 343 340 342 348 336 337 288 208 205 207 206 191 175 165 154 169 162 177 175
46 97 30 32 54 302 239 262 222 239 245 243 243 251 259 270 270 273 275 293 288 232 219 193 245 237 167 232 256 314 31 333 335 331 329 0 359 332 334 342 343 56 212 212 202 163 172 175 162 170 166 163 165 180
342 333 336 336 332 336 292 221 241 245 246 248 252 275 289 298 298 294 262 285 276 237 198 214 177 263 241 235 284 337 336 323 318 312 316 331 340 329 360 4 19 61 99 161 165 152 155 162 170 170 166 175 169 179
329 310 303 304 303 309 267 228 219 257 256 279 282 288 296 301 312 305 306 297 289 263 242 78 290 237 242 264 36 321 318 309 312 320 321 338 337 339 349 25 36 45 81 99 138 151 160 166 170 173 175 174 180 176
317 314 303 311 284 279 274 257 227 260 269 274 292 295 306 294 297 314 135 2 355 34 12 250 236 267 273 271 277 280 288 299 308 304 306 312 312 338 331 336 5 14 64 96 114 133 159 166 171 172 176 175 170 165
343 336 300 311 284 237 265 282 255 253 272 267 280 296 292 285 288 289 306 336 300 245 227 232 267 309 301 285 296 301 285 290 288 285 288 303 317 333 336 3 36 33 47 68 114 138 155 165 168 169 173 177 169 159
278 340 264 256 256 246 260 243 252 289 287 270 290 272 267 278 289 321 318 290 228 239 237 299 317 306 299 285 290 285 281 283 272 284 280 281 296 320 336 357 28 34 40 42 129 143 155 158 162 170 178 170 157 158
288 320 237 240 271 255 265 281 256 262 284 295 306 295 282 341 324 317 290 273 269 267 312 314 314 315 310 300 286 259 254 256 254 258 259 271 295 296 308 328 21 34 44 40 87 133 150 154 167 165 169 160 163 162
304 195 227 246 238 265 300 264 261 273 272 269 271 273 322 299 292 259 268 323 305 325 329 331 332 327 323 309 291 274 244 232 233 242 233 244 251 249 270 276 308 32 37 31 86 122 140 159 158 163 164 162 166 164
203 209 202 234 249 259 278 292 270 308 298 325 316 293 303 315 312 309 343 308 320 330 340 340 340 339 317 304 289 248 214 207 204 217 210 215 231 232 260 245 240 300 31 55 93 107 141 148 154 160 171 173 170 172
262 201 194 217 213 197 250 270 288 286 285 283 263 285 289 278 350 355 319 325 329 336 341 342 334 332 343 6 112 186 192 189 189 182 160 162 211 221 218 209 218 210 273 94 107 140 139 159 158 168 164 173 177 180
297 249 245 246 237 207 253 256 267 278 273 263 243 263 7 11 8 318 323 348 336 4 12 19 11 8 13 46 51 141 170 176 193 182 160 154 127 191 231 180 156 154 157 165 138 166 162 157 158 165 166 170 177 179
264 265 251 219 217 232 247 232 232 233 292 346 48 28 39 19 340 328 330 6 11 37 42 39 36 38 34 51 70 71 92 119 148 168 176 185 211 164 141 143 142 147 175 191 169 178 179 175 168 170 171 171 170 177
241 256 254 268 239 216 238 46 338 10 8 32 56 65 84 84 19 11 15 20 39 40 38 39 35 38 39 47 69 84 105 110 118 129 136 139 135 135 137 145 160 173 172 166 158 167 159 161 168 171 174 172 165 167
307 312 318 360 26 27 58 64 58 68 71 89 109 118 95 83 21 27 25 34 33 33 40 39 41 42 42 40 48 69 75 91 106 117 114 115 122 126 138 156 158 151 154 161 161 160 164 166 163 164 164 160 158 158
334 359 13 26 355 51 98 62 75 75 82 78 79 89 85 77 14 19 23 24 33 36 34 36 40 40 40 44 49 48 50 69 89 98 95 97 107 128 137 143 131 148 153 154 156 158 146 138 134 136 138 136 145 157
341 29 25 15 340 17 95 86 85 90 83 66 50 55 44 45 32 9 17 18 27 32 34 35 37 36 37 47 57 64 59 55 65 81 87 93 93 93 109 130 140 139 138 138 133 125 121 132 138 144 145 149 154 160
305 17 8 343 8 4 353 291 170 150 77 61 40 36 38 43 48 357 9 16 21 30 29 35 40 42 41 59 64 68 67 68 65 69 71 68 90 120 118 108 115 122 117 113 118 125 137 142 144 148 152 152 156 161